Regional Weather Roundup
Issued by NWS Charleston, SC

Current Version | Previous Version | Text Only | Print | Product List | Glossary Off
Versions: 1 2 3 4 5 6 7 8 9 10 11 12 13 14 15 16 17 18 19 20 21 22 23 24 25 26 27 28 29 30 31 32 33 34 35 36 37 38 39 40 41 42 43 44 45 46 47 48 49 50
000 ASUS42 KCHS 191812 RWRCHS Regional Weather Roundup National Weather Service Charleston SC 100 PM EST MON FEB 19 2018 NOTE: "fair" indicates few or no clouds below 12,000 feet with no significant weather and/or obstructions to visibility. Not all stations are quality controlled. Use data with caution, especially dewpoint observations. SCZ027-030-031-034>040-042>050-191900- ...Southeast South Carolina... CITY SKY/WX TMP DP RH WIND PRES REMARKS N Charleston PTSUNNY 74 63 68 VRB3 30.37F 6HR MIN TEMP: 58; 6HR MAX TEMP: 75; Waterfront Prk NOT AVBL Mount Pleasant FAIR 73 66 78 CALM 30.38F Johns Island CLOUDY 73 66 78 E7 30.38F Pinopolis N/A 57 55 94 NW6 30.31F Moncks Corner FAIR 64 55 72 CALM 30.39F HAZE Summerville MOCLDY 72 61 68 CALM 30.38F Beaufort MCAS FAIR 74 65 73 E7 30.36F 6HR MIN TEMP: 60; 6HR MAX TEMP: 74; Beaufort Arpt FAIR 70 63 78 NE9 30.37F HAZE Hilton Head Is MOSUNNY 70 63 78 NE6 30.38F Walterboro FAIR 73 61 64 CALM 30.38F Allendale CLOUDY 68 61 77 CALM 30.37F ...Southern Midlands and Pee Dee... CITY SKY/WX TMP DP RH WIND PRES REMARKS Georgetown CLOUDY 61 61 100 CALM 30.41F Kingstree CLOUDY 59 54 82 CALM 30.40F Orangeburg PTSUNNY 66 56 70 CALM 30.39 Barnwell N/A 68 63 83 CALM 30.38F Aiken CLOUDY 64 57 77 SE5 30.41F Manning CLOUDY 63 34 34 MISG 30.40F Columbia CLOUDY 65 57 75 E6 30.39F 6HR MIN TEMP: 56; 6HR MAX TEMP: 65; Sumter CLOUDY 61 53 76 CALM 30.38F 6HR MIN TEMP: 51; 6HR MAX TEMP: 61; Florence LGT RAIN 56 53 90 NE5 30.41F FOG 6HR MIN TEMP: 49; 6HR MAX TEMP: 56; 6HR PCP: TRACE; Myrtle Beach LGT RAIN 63 62 97 CALM 30.41F FOG N Myrtle Beach CLOUDY 63 62 97 CALM 30.39F 6HR MIN TEMP: 53; 6HR MAX TEMP: 65; 6HR PCP: 0.02; $$ GAZ063-065-086>088-099>101-113>116-118-119-134>141-150-191900- ...Southeast Georgia... CITY SKY/WX TMP DP RH WIND PRES REMARKS Savannah Arpt PTSUNNY 76 65 68 SE6 30.36F 6HR MIN TEMP: 59; 6HR MAX TEMP: 79; Hunter AAF FAIR 76 67 73 SE3 30.33F 6HR MIN TEMP: 59; 6HR MAX TEMP: 76; Fort Stewart FAIR 74 64 70 SE3 30.34F 6HR MIN TEMP: 60; 6HR MAX TEMP: 75; Statesboro FAIR 76 59 55 S7 30.36F Sylvania FAIR 75 66 74 CALM 30.37F Claxton FAIR 77 64 63 E3 30.36F ...CSRA, Central and far Southeast Georgia... CITY SKY/WX TMP DP RH WIND PRES REMARKS Thomson CLOUDY 63 58 84 SW6 30.43F Augusta-Bush CLOUDY 67 59 75 CALM 30.36F 6HR MIN TEMP: 57; 6HR MAX TEMP: 67; Augusta-Daniel CLOUDY 67 59 75 S7 30.38F Swainsboro MOCLDY 73 63 68 S6 30.36F Vidalia FAIR 73 63 68 S5 30.35F Eastman FAIR 79 52 39 S12 30.36F Hazlehurst FAIR 78 58 50 S7 30.33F Alma FAIR 75 62 64 SE7 30.34F 6HR MIN TEMP: 64; 6HR MAX TEMP: 79; Waycross FAIR 78 63 60 S9 30.34F Jesup MOCLDY 79 63 57 CALM 30.34F Baxley PTSUNNY 73 63 68 S5 30.34F Brunswick PTSUNNY 75 64 69 E5 30.36F Saint Simons FAIR 74 64 71 NE7 30.35F 6HR MIN TEMP: 61; 6HR MAX TEMP: 74; $$ SCZ027-028-034-036>038-045-046-048>050-GAZ119-141-191900- ...Lake and Supplemental Coastal Observations... STATION/POSITION TIME TEMP WIND PRES WAVE SWELL AIR SEA DIR/SP/G HT/PER HT/PER/DIR (UTC) (F) (DEG/KT/KT) (MB) (FT/S) (FT/S/D) Winyah Bay 1645 59 70/ 4 1030.0 Lake Murray 1720 59 CALM 1028.4 ACE Basin NERRS 1645 74 150/ 1 1029.0 Fort Pulaski 1742 62 59 110/ 4/ 5 1028.8F Sapelo Island 1700 73 360/ 5 1029.0 $$ ANZ835-935-AMZ111-154-330-350-352-354-370-450-454-472-191900- ...C-MAN and Buoy Observations... STATION/POSITION TIME TEMP WIND PRES WAVE SWELL AIR SEA DIR/SP/G HT/PER HT/PER/DIR (UTC) (F) (DEG/KT/KT) (MB) (FT/S) (FT/S/D) Buoy 41004 1750 70 67 140/ 4/ 6 1028.5F 5/ 8 5/ 80/ 8 Buoy 41008 1750 59 58 10/ 6/ 6 1027.7F 3/ 7 3/ 90/ 7 Folly Beach CMAN 1700 61 30/ 5/ 6 1029.8F Capers Nearshore 1708 56 57 30/ 8/ 10 1029.0F Fripp Nearshore NOT AVBL STATION/POSITION TIME TEMP WIND PRES WAVE SWELL AIR SEA DIR/SP/G HT/PER HT/PER/DIR (UTC) (F) (DEG/KT/KT) (MB) (FT/S) (FT/S/D) 5E St. Marys GA 1800 60 N/A 3/ 7 Frying Pan Buoy 1750 70 67 150/ 14/ 16 1029.1F 5/ 6 3/ 90/ 6 Buoy 41025 1750 69 72 160/ 17/ 23 1030.9F 6/ 8 3/ 70/ 9 Cape Lookout NC 1700 150/ 7/ 8 1030.7F Buoy 41002 1750 71 72 100/ 16/ 17 1030.0F 5/ 9 3/ 40/ 9 Buoy 41010 NOT AVBL St Augustine FL 1800 61 60 360/ 8/ 9 1027.6F $$

USA.gov is the U.S. government's official web portal to all federal, state and local government web resources and services.